Miscellaneous Local Product
Issued by NWS Hastings, NE

Home | Current Version | Previous Version | Text Only | Print | Product List | Glossary On
Versions: 1 2 3 4 5 6 7 8 9 10 11 12 13 14 15 16 17 18 19 20 21 22 23 24 25 26 27 28 29 30 31 32 33 34 35 36 37 38 39 40 41 42 43 44 45 46 47 48 49 50
817
AXUS43 KGID 290202
MISGRI

GID CWA HOURLY WEATHER ROUNDUP
NATIONAL WEATHER SERVICE HASTINGS NE
900 PM CDT SAT MAY 28 2016

NOTE: "FAIR" INDICATES FEW OR NO CLOUDS BELOW 12,000 FEET WITH NO
SIGNIFICANT WEATHER AND/OR OBSTRUCTIONS TO VISIBILITY.

...SOUTH CENTRAL NEBRASKA...

CITY           SKY/WX    TMP DP  RH WIND       PRES   REMARKS
GRAND ISLAND   CLEAR     66  58  75 NE7       29.95R
HASTINGS       PTCLDY    71  55  56 CALM      29.95R
KEARNEY        CLEAR     72  50  46 CALM      29.96R
ORD            CLEAR     67  55  65 CALM      29.94R
YORK           CLEAR     68  57  68 CALM      29.94R
AURORA         CLEAR     69  56  65 N6        29.94R
LEXINGTON      CLEAR     67  56  66 CALM      29.97R
HOLDREGE       CLEAR     71  51  49 SW5       29.96R
HEBRON         CLEAR     70  57  63 SW5       29.94R

...NEBRASKA PANHANDLE...

CITY           SKY/WX    TMP DP  RH WIND       PRES   REMARKS
CHADRON        CLOUDY    56  51  84 SE5       30.01R
ALLIANCE       CLOUDY    60  52  74 N5        30.03R
SCOTTSBLUFF    CLEAR     65  47  52 SE9       30.02R
SIDNEY         CLOUDY    64  48  56 W7        30.04R

...WESTERN AND NORTH CENTRAL NEBRASKA...

CITY           SKY/WX    TMP DP  RH WIND       PRES   REMARKS
VALENTINE      CLOUDY    68  50  52 NE7       29.94R
AINSWORTH      CLEAR     64  55  71 E5        29.96R
ONEILL         CLOUDY    63  56  78 N3        29.95R
BROKEN BOW     CLEAR     66  55  67 CALM      29.96R
IMPERIAL       PTCLDY    69  55  60 CALM      29.99R
NORTH PLATTE   PTCLDY    66  54  65 SW6       29.97R
MCCOOK         CLEAR     72  49  44 S3        29.98R

...EASTERN NEBRASKA...

CITY           SKY/WX    TMP DP  RH WIND       PRES   REMARKS
NORFOLK        CLOUDY    61  55  81 NW6       29.93R
SO SIOUX CITY  CLOUDY    64  58  80 NW13      29.88R
TEKAMAH        CLEAR     65  56  72 W12       29.90R
COLUMBUS       CLEAR     64  52  63 NW6       29.94R
ALBION         CLEAR     62  56  80 CALM      29.95R
OMAHA EPPLEY   PTCLDY    69  56  62 NW9       29.90R
OFFUTT AFB     CLEAR     70  55  59 W12       29.90R
MILLARD        CLEAR     71  56  59 W9        29.89R
LINCOLN        CLEAR     72  56  57 W5        29.93R
NEBRASKA CITY  CLEAR     69  55  60 W9        29.92R
BEATRICE       CLEAR     71  58  64 CALM      29.93R
FALLS CITY     CLEAR     70  59  68 SW6       29.92R

...NORTHERN KANSAS...

CITY           SKY/WX    TMP DP  RH WIND       PRES   REMARKS
GOODLAND       CLEAR     67  47  48 SW6       30.02R
HILL CITY      CLEAR     71  54  54 E3        29.98R
NORTON         CLEAR     72  45  37 CALM      29.98R
PHILLIPSBURG   CLEAR     70  57  64 CALM      29.97R
SMITH CENTER   CLEAR     63  57  82 S6        29.97R
BELOIT         CLEAR     57  46  67 S6        29.96R
HAYS           CLEAR     70  54  56 S6        29.99R
RUSSELL        CLEAR     69  61  75 S6        29.97R
CONCORDIA      CLEAR     66  57  72 SW8       29.96R
SALINA         CLEAR     73  59  61 SW5       29.98R
TOPEKA         CLEAR     72  58  61 SW3       29.95R



USA.gov is the U.S. government's official web portal to all federal, state and local government web resources and services.